Regional Weather Roundup
Issued by NWS

Home | Current Version | Previous Version | Graphics & Text | Print | Product List | Glossary On
Versions: 1 2 3 4 5 6 7 8 9 10 11 12 13 14 15 16 17 18 19 20 21 22 23 24 25 26 27 28 29 30 31 32 33 34 35 36 37 38 39 40 41 42 43 44 45 46 47 48 49 50
000
ASUS43 KLOT 250012
RWRIL

ILLINOIS REGIONAL WEATHER ROUNDUP
NATIONAL WEATHER SERVICE CHICAGO/ROMEOVILLE IL
700 PM CDT FRI APR 24 2015

NOTE: "FAIR" INDICATES FEW OR NO CLOUDS BELOW 12,000 FEET WITH NO
SIGNIFICANT WEATHER AND/OR OBSTRUCTIONS TO VISIBILITY.

* THESE STATIONS ARE NOT UNDER NWS QUALITY CONTROL. THEY ALSO MAY NOT
  REPORT WEATHER SUCH AS PRECIPITATION OR FOG.

ILZ001-002-007-009-015-016-024-250100-
NORTHWEST ILLINOIS

CITY           SKY/WX    TMP DP  RH WIND       PRES   REMARKS
MOLINE         LGT RAIN  50  43  77 NE7       29.83R
6HR MIN TEMP:  50; 6HR MAX TEMP:  64; 6HR PCP:  0.18;

STERLING*      CLOUDY    46  39  76 NE12G25   29.86S
SAVANNA*       RAIN      44  40  86 E10       29.86R
$$

ILZ003-004-008-010-011-017-018-250100-
NORTH CENTRAL ILLINOIS

CITY           SKY/WX    TMP DP  RH WIND       PRES   REMARKS
ROCKFORD       LGT RAIN  44  37  76 E12G23    29.89F
6HR MIN TEMP:  44; 6HR MAX TEMP:  55; 6HR PCP:  0.14;

FREEPORT*      DRIZZLE   43  39  83 E9        29.89S
ROCHELLE*      LGT RAIN  45  37  72 E15G21    29.88F
DE KALB*       RAIN      44  32  61 NE15      29.91F
PERU*          LGT RAIN  58  32  37 E9        29.86F
$$

ILZ005-006-012>014-019>023-250100-
NORTHEAST ILLINOIS

CITY           SKY/WX    TMP DP  RH WIND       PRES   REMARKS
CHICAGO-OHARE  CLOUDY    47  25  42 NE14      29.94R
6HR MIN TEMP:  47; 6HR MAX TEMP:  56; 6HR PCP: TRACE;

CHICAGO-MIDWAY CLOUDY    51  25  36 NE12      29.93S
6HR MIN TEMP:  50; 6HR MAX TEMP:  60;

AURORA         CLOUDY    52  23  32 NE13      29.91R
6HR MIN TEMP:  52; 6HR MAX TEMP:  63;

LANSING*       CLOUDY    49  20  32 NE16      29.92S
JOLIET*        CLOUDY    54  23  29 NE10      29.92R
WAUKEGAN       LGT RAIN  41  34  76 VRB5      29.95F
6HR MIN TEMP:  41; 6HR MAX TEMP:  48; 6HR PCP:  0.06;

DUPAGE AIRPORT CLOUDY    48  27  44 NE10      29.93R
6HR MIN TEMP:  48; 6HR MAX TEMP:  60;

KANKAKEE*      CLOUDY    59  30  33 S5        29.90R
WHEELING       LGT RAIN  44  29  55 NE7       29.96R
6HR MIN TEMP:  44; 6HR MAX TEMP:  53; 6HR PCP:  0.02;

MORRIS*        CLOUDY    59  27  29 E5        29.88R
ROMEOVILLE*    CLOUDY    51  18  27 E12G23    29.92R
NORTHERLY ISL    N/A     44  30  58 NE17        N/A
$$

LMZ740>746-250100-
SOUTHERN LAKE MICHIGAN

STATION/POSITION SKY/WX   TEMP    WIND        PRES    VSBY  WAVE
                          AIR SEA DIR/SP/G                  HT/PER
                          (F)     (DEG/KT/KT) (MB)    (MI)  (FT/S)
HARRISON CRIB              44      40/ 19/ 21   N/A
BURNHAM HARBOR             44      30/ 14/ 15   N/A
CALUMET HARBOR             46      40/ 10/ 12   N/A
BURNS HARBOR               48      70/ 18/ 20 1013.5
MICHIGAN CITY              47      30/ 18/ 20   N/A
MICHIGAN CITY 6N           45 44   70/ 14/ 16   N/A           2/ 3
$$

ILZ025>027-034>036-040-047-049-050-058-095>099-250100-
WEST-CENTRAL ILLINOIS

CITY           SKY/WX    TMP DP  RH WIND       PRES   REMARKS
QUINCY         CLOUDY    63  39  41 SE10      29.73F
GALESBURG*     CLOUDY    56  39  53 SE7       29.80F
MACOMB*        CLOUDY    61  34  36 SE18      29.79F
JACKSONVILLE*  CLOUDY    62  37  38 SE15      29.77F
PITTSFIELD*    CLOUDY    63  40  43 S16       29.75F
$$

ILZ028>032-037-038-041>044-048-051>054-059>061-250100-
CENTRAL ILLINOIS

CITY           SKY/WX    TMP DP  RH WIND       PRES   REMARKS
PONTIAC        LGT RAIN  60  30  32 SE15G21   29.87F
BLOOMINGTON    CLOUDY    58  32  37 S18       29.85F
DECATUR        CLOUDY    58  33  39 SE10      29.85F
PEORIA         CLOUDY    61  31  32 S18G25    29.80F
6HR MIN TEMP:  61; 6HR MAX TEMP:  66;

LACON*         CLOUDY    59  28  30 SE5       29.83R
LINCOLN*       CLOUDY    59  32  35 SE13      29.82F
SPRINGFIELD    CLOUDY    60  34  37 SE15      29.81F
6HR MIN TEMP:  60; 6HR MAX TEMP:  63;

TAYLORVILLE    CLOUDY    57  34  41 SE13      29.82F
$$

ILZ033-039-045-046-055>057-062-063-250100-
EAST-CENTRAL ILLINOIS

CITY           SKY/WX    TMP DP  RH WIND       PRES   REMARKS
CHAMPAIGN      CLOUDY    59  29  31 S16       29.88F
DANVILLE*      CLOUDY    57  34  41 SE6       29.87S
RANTOUL*       CLOUDY    60  31  33 SE10      29.88S
MATTOON        CLOUDY    57  33  40 SE9       29.87F
PARIS*         CLOUDY    56  37  48 SE8       29.90F
$$

ILZ079-100>102-250100-
SOUTHWEST ILLINOIS

CITY           SKY/WX    TMP DP  RH WIND       PRES   REMARKS
BELLEVILLE     CLOUDY    57  44  62 S8        29.81F
CAHOKIA*       CLOUDY    58  44  60 SE12G18   29.79F
SPARTA*        CLOUDY    55  44  65 SE10      29.84F
$$

ILZ064>066-069>071-074>076-080>082-084>086-088>090-092>094-250100-
SOUTH-CENTRAL ILLINOIS

CITY           SKY/WX    TMP DP  RH WIND       PRES   REMARKS
CARBONDALE     CLOUDY    57  44  62 SE7       29.86F
6HR MIN TEMP:  55; 6HR MAX TEMP:  62; 6HR PCP: TRACE;

CAIRO*         CLOUDY    59  43  55 SE6       29.88F
EFFINGHAM*     CLOUDY    59  29  32 E8        29.88F
MARION         CLOUDY    55  46  71 SE5       29.87F
MT. VERNON     CLOUDY    59  34  38 S9        29.87F
CENTRALIA*     CLOUDY    58  34  40 S14       29.85F
SALEM*         CLOUDY    62  29  29 S10       29.85F
METROPOLIS*    CLOUDY    60  42  52 SE3       29.88S
$$

ILZ067-068-072-073-078-083-087-091-250100-
SOUTHEAST ILLINOIS

CITY           SKY/WX    TMP DP  RH WIND       PRES   REMARKS
LAWRENCEVILLE  CLOUDY    61  34  36 S8        29.90F
FLORA*         CLOUDY    59  36  42 S9        29.87F
FAIRFIELD*     CLOUDY    60  38  43 S8        29.86F
HARRISBURG*    CLOUDY    58  40  52 S10G20    29.91F
ROBINSON*      CLOUDY    60  35  39 S6        29.90F
CARMI*         CLOUDY    59  32  36 S10       29.89F
$$

ABBREVIATIONS USED IN REMARKS
   TC - TEMPERATURE IN CELSIUS
  WCI - WIND CHILL INDEX
   HX - HEAT INDEX
  VSB - VISIBILITY
$$




USA.gov is the U.S. government's official web portal to all federal, state and local government web resources and services.